This is the latest recevied weather packets stored in our database for station/object W4OTS. If no packets are shown the sender has not sent any weather packets the latest 10 day(s).
| Time | Temp. | Humidity | Pressure | Rain* | Wind** | Luminosity | Snow |
|---|---|---|---|---|---|---|---|
| 1778190014 | 18.33° C | 91% | 1011 hPa | 0 mm | - | 41 W/m² | - |
| 1778189710 | 18.89° C | 90% | 1011.2 hPa | 0 mm | - | 40 W/m² | - |
| 1778189407 | 18.89° C | 89% | 1010.7 hPa | 0 mm | - | 47 W/m² | - |
| 1778189103 | 18.89° C | 89% | 1010.6 hPa | 0 mm | - | 72 W/m² | - |
| 1778188800 | 18.89° C | 89% | 1010.3 hPa | 0 mm | - | 35 W/m² | - |
| 1778188496 | 18.33° C | 90% | 1010.3 hPa | 0 mm | - | 65 W/m² | - |
| 1778188193 | 18.89° C | 89% | 1010.5 hPa | 0 mm | - | 53 W/m² | - |
| 1778187890 | 18.89° C | 89% | 1010.4 hPa | 0 mm | - | 101 W/m² | - |
| 1778187587 | 19.44° C | 89% | 1010.4 hPa | 0 mm | - | 89 W/m² | - |
| 1778187284 | 19.44° C | 88% | 1010.2 hPa | 0 mm | - | 120 W/m² | - |
| 1778186980 | 20.56° C | 87% | 1010.3 hPa | 0 mm | - | 117 W/m² | - |
| 1778186670 | 21.67° C | 85% | 1010 hPa | 0 mm | - | 114 W/m² | - |
| 1778186368 | 23.89° C | 82% | 1009.5 hPa | 0 mm | - | 101 W/m² | - |
| 1778186060 | 23.33° C | 83% | 1009.4 hPa | 0 mm | - | 109 W/m² | - |
| 1778185757 | 23.33° C | 85% | 1009.6 hPa | 0 mm | - | 98 W/m² | - |
| 1778185453 | 22.78° C | 85% | 1009.5 hPa | 0 mm | - | 76 W/m² | - |
| 1778185149 | 22.78° C | 84% | 1009.6 hPa | 0 mm | - | 67 W/m² | - |
| 1778184844 | 22.22° C | 85% | 1009.6 hPa | 0 mm | - | 58 W/m² | - |
| 1778184541 | 22.22° C | 84% | 1009.6 hPa | 0 mm | - | 42 W/m² | - |
| 1778184237 | 22.22° C | 87% | 1009.6 hPa | 0 mm | - | 42 W/m² | - |
| 1778183933 | 21.67° C | 84% | 1009.6 hPa | 0 mm | - | 42 W/m² | - |
| 1778183631 | 21.67° C | 86% | 1009.5 hPa | 0 mm | - | 41 W/m² | - |
| 1778183328 | 21.67° C | 88% | 1009.5 hPa | 0 mm | - | 47 W/m² | - |
| 1778183024 | 21.11° C | 87% | 1009.7 hPa | 0 mm | - | 46 W/m² | - |
| 1778182721 | 21.11° C | 91% | 1009.8 hPa | 0 mm | - | 47 W/m² | - |
* Rain latest hour (hover to see other rain measurements)
** Current wind speed in m/s (hover to see current wind gust speed)